GW3170 Weather Reports


Display with metric or nautical units.
time (UTC)temp
F
wind
direction
speed
MPH
gust
MPH
rain 1hr
in
rain 24hr
in
rain mn
in
humidity
%
barometer
mb
20260905202557 74 0 1.0 4.0 0.00 0.00 0.00 66 1013.5
20260905202057 75 0 0.0 5.0 0.00 0.00 0.00 65 1013.5
20260905201609 75 0 1.0 5.0 0.00 0.00 0.00 66 1013.6
20260905201056 75 0 0.0 5.0 0.00 0.00 0.00 68 1013.6
20260905200557 75 357 1.0 5.0 0.00 0.00 0.00 67 1013.5
20260905200152 75 331 0.0 7.0 0.00 0.00 0.00 68 1013.5
20260905195601 75 0 0.0 7.0 0.00 0.00 0.00 67 1013.5
20260905195057 75 0 1.0 7.0 0.00 0.00 0.00 68 1013.4
20260905194616 75 297 2.0 5.0 0.00 0.00 0.00 66 1013.6
20260905194057 76 323 0.0 3.0 0.00 0.00 0.00 66 1013.6
20260905193557 76 0 1.0 4.0 0.00 0.00 0.00 65 1013.6
20260905193107 77 0 1.0 4.0 0.00 0.00 0.00 64 1013.5
20260905192557 77 0 0.0 3.0 0.00 0.00 0.00 67 1013.4
20260905192056 76 0 0.0 1.0 0.00 0.00 0.00 67 1013.4
20260905191602 76 0 0.0 1.0 0.00 0.00 0.00 67 1013.3
20260905191100 76 0 0.0 5.0 0.00 0.00 0.00 65 1013.3
20260905190557 76 0 0.0 5.0 0.00 0.00 0.00 66 1013.4
20260905190115 76 0 1.0 5.0 0.00 0.00 0.00 67 1013.4
20260905185556 76 0 1.0 4.0 0.00 0.00 0.00 67 1013.5
20260905185100 76 0 0.0 3.0 0.00 0.00 0.00 68 1013.4
20260905184628 75 295 0.0 2.0 0.00 0.00 0.00 66 1013.4
20260905184059 75 0 0.0 6.0 0.00 0.00 0.00 68 1013.4
20260905183559 75 342 2.0 6.0 0.00 0.00 0.00 69 1013.4
20260905183125 74 345 0.0 3.0 0.00 0.00 0.00 70 1013.3
20260905182557 74 0 1.0 3.0 0.00 0.00 0.00 70 1013.3
20260905182057 74 0 0.0 6.0 0.00 0.00 0.00 72 1013.3
20260905181621 74 0 1.0 6.0 0.00 0.00 0.00 69 1013.5
20260905181057 74 0 0.0 4.0 0.00 0.00 0.00 71 1013.4
20260905180557 74 0 0.0 5.0 0.00 0.00 0.00 69 1013.4
20260905180125 75 0 0.0 5.0 0.00 0.00 0.00 70 1013.4
20260905175559 74 318 0.0 5.0 0.00 0.00 0.00 72 1013.2
20260905175056 73 0 0.0 3.0 0.00 0.00 0.00 73 1013.2
20260905174607 73 0 0.0 3.0 0.00 0.00 0.00 72 1013.3
20260905174056 74 0 0.0 3.0 0.00 0.00 0.00 71 1013.2
20260905173557 74 0 0.0 3.0 0.00 0.00 0.00 70 1013.2
20260905173103 74 325 0.0 3.0 0.00 0.00 0.00 71 1013.2
20260905172557 73 328 0.0 2.0 0.00 0.00 0.00 73 1013.3
20260905172057 72 0 0.0 1.0 0.00 0.00 0.00 73 1013.4
20260905171607 73 0 0.0 0.0 0.00 0.00 0.00 72 1013.5
20260905171058 73 0 0.0 0.0 0.00 0.00 0.00 71 1013.4
20260905170557 73 0 0.0 0.0 0.00 0.00 0.00 70 1013.4
20260905170109 74 0 0.0 2.0 0.00 0.00 0.00 70 1013.6
20260905165556 74 0 0.0 2.0 0.00 0.00 0.00 69 1013.5
20260905165100 74 0 0.0 4.0 0.00 0.00 0.00 71 1013.4
20260905164605 73 0 0.0 4.0 0.00 0.00 0.00 70 1013.5
20260905164058 73 0 0.0 1.0 0.00 0.00 0.00 69 1013.5
20260905163557 74 0 0.0 1.0 0.00 0.00 0.00 68 1013.6
20260905163104 73 293 0.0 2.0 0.00 0.00 0.00 72 1013.6
20260905162557 73 0 0.0 2.0 0.00 0.00 0.00 71 1013.6
20260905162057 73 0 0.0 3.0 0.00 0.00 0.00 70 1013.7
20260905161601 73 0 1.0 3.0 0.00 0.00 0.00 69 1013.7
20260905161057 74 0 0.0 2.0 0.00 0.00 0.00 70 1013.7
20260905160559 74 0 0.0 4.0 0.00 0.00 0.00 69 1013.8
20260905160106 74 0 0.0 4.0 0.00 0.00 0.00 67 1013.8
20260905155558 75 332 1.0 4.0 0.00 0.00 0.00 65 1013.7
20260905155057 75 0 0.0 2.0 0.00 0.00 0.00 68 1013.6
20260905154602 75 0 0.0 0.0 0.00 0.00 0.00 68 1013.7
20260905154059 75 0 0.0 0.0 0.00 0.00 0.00 68 1013.7
20260905153556 74 0 0.0 6.0 0.00 0.00 0.00 69 1013.8
20260905153102 74 0 0.0 6.0 0.00 0.00 0.00 68 1013.7
20260905152557 74 0 0.0 6.0 0.00 0.00 0.00 69 1013.7
20260905152057 74 323 1.0 6.0 0.00 0.00 0.00 67 1013.7
20260905151602 74 0 0.0 1.0 0.00 0.00 0.00 72 1013.7
20260905151057 74 0 0.0 2.0 0.00 0.00 0.00 73 1013.8
20260905150557 74 0 0.0 3.0 0.00 0.00 0.00 73 1013.9
20260905150106 73 0 0.0 3.0 0.00 0.00 0.00 73 1013.8
20260905145554 73 0 0.0 3.0 0.00 0.00 0.00 75 1013.8
20260905145057 73 321 0.0 3.0 0.00 0.00 0.00 75 1013.8
20260905144604 72 285 0.0 1.0 0.00 0.00 0.00 74 1013.8
20260905144057 71 0 0.0 2.0 0.00 0.00 0.00 76 1013.8
20260905143557 71 0 0.0 5.0 0.00 0.00 0.00 76 1013.7
20260905143105 71 0 0.0 5.0 0.00 0.00 0.00 75 1013.6
20260905142558 71 0 0.0 5.0 0.00 0.00 0.00 76 1013.6
20260905142057 71 0 0.0 2.0 0.00 0.00 0.00 77 1013.7
20260905141604 71 0 0.0 2.0 0.00 0.00 0.00 77 1013.6
20260905141058 71 0 0.0 2.0 0.00 0.00 0.00 79 1013.7
20260905140557 70 34 0.0 2.0 0.00 0.00 0.00 82 1013.6
20260905140105 70 0 0.0 3.0 0.00 0.00 0.00 82 1013.6
20260905135558 69 0 0.0 4.0 0.00 0.00 0.00 82 1013.6
20260905135057 69 283 0.0 4.0 0.00 0.00 0.00 82 1013.5
20260905134611 69 314 0.0 2.0 0.00 0.00 0.00 83 1013.6
20260905134057 68 0 0.0 2.0 0.00 0.00 0.00 86 1013.5
20260905133556 68 0 0.0 2.0 0.00 0.00 0.00 86 1013.6
20260905133100 67 340 0.0 2.0 0.00 0.00 0.00 88 1013.6
20260905132558 67 0 0.0 6.0 0.00 0.00 0.00 90 1013.6
20260905132058 67 314 1.0 6.0 0.00 0.00 0.00 90 1013.6
20260905131611 66 288 0.0 3.0 0.00 0.00 0.00 92 1013.5
20260905131057 65 0 0.0 3.0 0.00 0.00 0.00 94 1013.7
20260905130600 65 0 1.0 3.0 0.00 0.00 0.00 95 1013.8
20260905125601 64 0 0.0 3.0 0.00 0.00 0.00 96 1013.8
20260905125058 63 0 0.0 3.0 0.00 0.00 0.00 97 1013.9
20260905124604 63 0 0.0 3.0 0.00 0.00 0.00 97 1014.0
20260905124057 62 0 0.0 1.0 0.00 0.00 0.00 97 1013.9
20260905123558 61 0 0.0 0.0 0.00 0.00 0.00 97 1013.8
20260905123108 60 0 0.0 1.0 0.00 0.00 0.00 96 1013.8
20260905122557 59 0 0.0 1.0 0.00 0.00 0.00 97 1013.8
20260905122058 59 0 0.0 0.0 0.00 0.00 0.00 96 1013.8
20260905121603 58 0 0.0 0.0 0.00 0.00 0.00 96 1013.8
20260905121057 58 0 0.0 0.0 0.00 0.00 0.00 96 1013.7
20260905120557 57 0 0.0 0.0 0.00 0.00 0.00 95 1013.7
20260905115557 56 0 0.0 0.0 0.00 0.00 0.00 95 1013.6
20260905115100 56 0 0.0 0.0 0.00 0.00 0.00 95 1013.5
20260905114613 56 0 0.0 0.0 0.00 0.00 0.00 95 1013.4
20260905114100 56 0 0.0 0.0 0.00 0.00 0.00 95 1013.3
20260905113558 55 0 0.0 0.0 0.00 0.00 0.00 95 1013.4
20260905113108 55 0 0.0 0.0 0.00 0.00 0.00 95 1013.4
20260905112557 55 0 0.0 0.0 0.00 0.00 0.00 95 1013.3
20260905112058 55 0 0.0 0.0 0.00 0.00 0.00 95 1013.3
20260905111640 55 0 0.0 0.0 0.00 0.00 0.00 95 1013.4
20260905111057 55 0 0.0 1.0 0.00 0.00 0.00 95 1013.4
20260905110600 55 0 0.0 1.0 0.00 0.00 0.00 94 1013.2
20260905110104 55 0 0.0 1.0 0.00 0.00 0.00 94 1013.2
20260905105558 55 0 0.0 0.0 0.00 0.00 0.00 94 1013.1
20260905105058 55 0 0.0 0.0 0.00 0.00 0.00 94 1013.0
20260905104603 55 0 0.0 0.0 0.00 0.00 0.00 94 1012.9
20260905104056 55 0 0.0 0.0 0.00 0.00 0.00 94 1012.7
20260905103557 55 0 0.0 0.0 0.00 0.00 0.00 94 1012.6
20260905103105 55 0 0.0 0.0 0.00 0.00 0.00 94 1012.7
20260905102559 55 0 0.0 0.0 0.00 0.00 0.00 94 1012.6
20260905102057 56 0 0.0 0.0 0.00 0.00 0.00 94 1012.6
20260905101602 55 0 0.0 0.0 0.00 0.00 0.00 94 1012.6
20260905101057 55 0 0.0 0.0 0.00 0.00 0.00 94 1012.6
20260905100558 56 0 0.0 0.0 0.00 0.00 0.00 94 1012.6
20260905100107 56 0 0.0 0.0 0.00 0.00 0.00 94 1012.6
20260905095556 56 0 0.0 0.0 0.00 0.00 0.00 94 1012.7
20260905095057 55 0 0.0 0.0 0.00 0.00 0.00 94 1012.7
20260905094612 55 0 0.0 0.0 0.00 0.00 0.00 94 1012.6
20260905094058 55 0 0.0 0.0 0.00 0.00 0.00 94 1012.7
20260905093557 55 0 0.0 0.0 0.00 0.00 0.00 94 1012.7
20260905093101 56 0 0.0 0.0 0.00 0.00 0.00 94 1012.7
20260905092556 56 0 0.0 0.0 0.00 0.00 0.00 94 1012.6
20260905092057 56 0 0.0 0.0 0.00 0.00 0.00 94 1012.7
20260905091609 56 0 0.0 0.0 0.00 0.00 0.00 94 1012.7
20260905091056 56 0 0.0 0.0 0.00 0.00 0.00 94 1012.7
20260905090557 56 0 0.0 0.0 0.00 0.00 0.00 94 1012.7
20260905090103 56 0 0.0 0.0 0.00 0.00 0.00 94 1012.7
20260905085558 56 0 0.0 0.0 0.00 0.00 0.00 94 1012.7
20260905085100 56 0 0.0 0.0 0.00 0.00 0.00 93 1012.7
20260905084607 56 0 0.0 0.0 0.00 0.00 0.00 94 1012.6
20260905084057 57 0 0.0 0.0 0.00 0.00 0.00 93 1012.7
20260905083557 57 0 0.0 0.0 0.00 0.00 0.00 93 1012.7
20260905083058 57 0 0.0 0.0 0.00 0.00 0.00 94 1012.8
20260905082558 57 0 0.0 0.0 0.00 0.00 0.00 94 1012.7
20260905082057 57 0 0.0 0.0 0.00 0.00 0.00 93 1012.7
20260905081619 57 0 0.0 0.0 0.00 0.00 0.00 93 1012.7
20260905081056 57 0 0.0 0.0 0.00 0.00 0.00 93 1012.7
20260905080556 57 0 0.0 0.0 0.00 0.00 0.00 93 1012.8
20260905080107 58 0 0.0 0.0 0.00 0.00 0.00 93 1012.8
20260905075602 58 0 0.0 0.0 0.00 0.00 0.00 93 1012.8
20260905075057 58 0 0.0 0.0 0.00 0.00 0.00 93 1012.8
20260905074604 58 0 0.0 0.0 0.00 0.00 0.00 93 1012.8
20260905074057 58 0 0.0 0.0 0.00 0.00 0.00 93 1012.7
20260905073601 59 0 0.0 0.0 0.00 0.00 0.00 93 1012.7
20260905073100 59 0 0.0 0.0 0.00 0.00 0.00 93 1012.7
20260905072556 59 0 0.0 0.0 0.00 0.00 0.00 93 1012.9
20260905072100 59 0 0.0 0.0 0.00 0.00 0.00 93 1012.9
20260905071606 59 0 0.0 0.0 0.00 0.00 0.00 93 1012.8
20260905071102 60 0 0.0 0.0 0.00 0.00 0.00 93 1012.9
20260905070557 60 0 0.0 0.0 0.00 0.00 0.00 93 1013.0
20260905070105 60 0 0.0 0.0 0.00 0.00 0.00 93 1013.0
20260905065557 60 0 0.0 0.0 0.00 0.00 0.00 93 1012.9
20260905065057 60 0 0.0 0.0 0.00 0.00 0.00 93 1012.9
20260905064604 60 0 0.0 0.0 0.00 0.00 0.00 93 1013.1
20260905064057 60 0 0.0 0.0 0.00 0.00 0.00 93 1013.1
20260905063557 60 0 0.0 0.0 0.00 0.00 0.00 93 1013.1
20260905063123 61 0 0.0 0.0 0.00 0.00 0.00 92 1013.1
20260905062555 61 0 0.0 0.0 0.00 0.00 0.00 92 1013.1
20260905062056 61 0 0.0 0.0 0.00 0.00 0.00 92 1013.1
20260905061614 61 0 0.0 0.0 0.00 0.00 0.00 92 1013.0
20260905061057 62 0 0.0 0.0 0.00 0.00 0.00 92 1013.0
20260905060557 62 0 0.0 0.0 0.00 0.00 0.00 92 1013.0
20260905060105 62 0 0.0 0.0 0.00 0.00 0.00 92 1013.0
20260905055557 62 0 0.0 0.0 0.00 0.00 0.00 92 1013.0
20260905055057 63 0 0.0 0.0 0.00 0.00 0.00 92 1013.0
20260905054601 63 0 0.0 0.0 0.00 0.00 0.00 92 1013.0
20260905054058 63 0 0.0 0.0 0.00 0.00 0.00 92 1012.9
20260905053557 63 0 0.0 0.0 0.00 0.00 0.00 92 1013.1
20260905053100 63 0 0.0 0.0 0.00 0.00 0.00 93 1013.2
20260905052556 64 0 0.0 0.0 0.00 0.00 0.00 93 1013.1
20260905052057 64 0 0.0 0.0 0.00 0.00 0.00 93 1013.2
20260905051603 64 0 0.0 0.0 0.00 0.00 0.00 93 1013.2
20260905051057 64 0 0.0 0.0 0.00 0.00 0.00 93 1013.2
20260905050557 64 0 0.0 0.0 0.00 0.00 0.00 93 1013.2
20260905050106 63 0 0.0 0.0 0.00 0.00 0.00 92 1013.2
20260905045558 63 0 0.0 0.0 0.00 0.00 0.00 92 1013.3
20260905045056 63 0 0.0 0.0 0.00 0.00 0.00 92 1013.3
20260905044603 63 0 0.0 0.0 0.00 0.00 0.00 92 1013.4
20260905044057 63 0 0.0 0.0 0.00 0.00 0.00 92 1013.3
20260905043557 63 0 0.0 0.0 0.00 0.00 0.00 92 1013.3
20260905043132 63 0 0.0 0.0 0.00 0.00 0.00 92 1013.3
20260905042555 63 0 0.0 0.0 0.00 0.00 0.00 92 1013.2
20260905042052 63 0 0.0 0.0 0.00 0.00 0.00 92 1013.2
20260905041602 63 0 0.0 0.0 0.00 0.00 0.00 92 1013.2
20260905041053 63 0 0.0 0.0 0.00 0.00 0.00 92 1013.2
20260905040556 63 0 0.0 0.0 0.00 0.00 0.00 92 1013.2
20260905040122 63 0 0.0 0.0 0.00 0.00 0.00 91 1013.2
20260905035553 63 0 0.0 0.0 0.00 0.00 0.00 91 1013.1
20260905035054 63 0 0.0 0.0 0.00 0.00 0.00 91 1013.2
20260905034602 63 0 0.0 0.0 0.00 0.00 0.00 91 1013.2
20260905034056 63 0 0.0 0.0 0.00 0.00 0.00 91 1013.2
20260905033553 63 0 0.0 0.0 0.00 0.00 0.00 91 1013.3
20260905033104 63 0 0.0 0.0 0.00 0.00 0.00 91 1013.2
20260905032556 63 0 0.0 0.0 0.00 0.00 0.00 90 1013.2
20260905032057 63 0 0.0 0.0 0.00 0.00 0.00 90 1013.2
20260905031610 63 0 0.0 0.0 0.00 0.00 0.00 90 1013.2
20260905031055 64 0 0.0 0.0 0.00 0.00 0.00 89 1013.1
20260905030556 64 0 0.0 0.0 0.00 0.00 0.00 89 1013.0
20260905030118 64 0 0.0 0.0 0.00 0.00 0.00 89 1013.0
20260905025556 64 0 0.0 0.0 0.00 0.00 0.00 89 1012.9
20260905025056 65 0 0.0 0.0 0.00 0.00 0.00 88 1013.0
20260905024605 65 0 0.0 0.0 0.00 0.00 0.00 88 1012.9
20260905024055 65 0 0.0 0.0 0.00 0.00 0.00 88 1013.0
20260905023558 66 0 0.0 0.0 0.00 0.00 0.00 88 1013.0
20260905023107 66 0 0.0 0.0 0.00 0.00 0.00 88 1013.1
20260905022554 66 0 0.0 0.0 0.00 0.00 0.00 89 1013.2
20260905022054 66 0 0.0 0.0 0.00 0.00 0.00 89 1013.2
20260905021605 66 0 0.0 2.0 0.00 0.00 0.00 89 1013.2
20260905021053 66 0 0.0 2.0 0.00 0.00 0.00 89 1013.2
20260905020554 65 0 0.0 2.0 0.00 0.00 0.00 89 1013.3
20260905015554 65 0 0.0 0.0 0.00 0.00 0.00 89 1013.3
20260905015056 65 0 0.0 0.0 0.00 0.00 0.00 88 1013.3
20260905014603 65 0 0.0 0.0 0.00 0.00 0.00 86 1013.4
20260905014055 65 0 0.0 0.0 0.00 0.00 0.00 86 1013.4
20260905013554 66 0 0.0 0.0 0.00 0.00 0.00 85 1013.3
20260905013105 66 0 0.0 0.0 0.00 0.00 0.00 85 1013.3
20260905012555 66 0 0.0 0.0 0.00 0.00 0.00 86 1013.3
20260905012057 66 0 0.0 0.0 0.00 0.00 0.00 86 1013.3
20260905011603 66 0 0.0 0.0 0.00 0.00 0.00 86 1013.3
20260905011054 66 0 0.0 0.0 0.00 0.00 0.00 87 1013.3
20260905010554 65 0 0.0 0.0 0.00 0.00 0.00 87 1013.3
20260905010109 65 0 0.0 0.0 0.00 0.00 0.00 87 1013.3
20260905005554 65 0 0.0 0.0 0.00 0.00 0.00 86 1013.4
20260905005054 66 0 0.0 0.0 0.00 0.00 0.00 84 1013.4
20260905004616 66 0 0.0 0.0 0.00 0.00 0.00 84 1013.4
20260905004055 66 0 0.0 0.0 0.00 0.00 0.00 84 1013.2
20260905003557 67 0 0.0 0.0 0.00 0.00 0.00 83 1013.2
20260905003101 67 0 0.0 0.0 0.00 0.00 0.00 83 1013.2
20260905002555 68 0 0.0 0.0 0.00 0.00 0.00 82 1013.2
20260905002100 68 0 0.0 0.0 0.00 0.00 0.00 81 1013.2
20260905001607 69 0 0.0 0.0 0.00 0.00 0.00 81 1013.1
20260905001054 69 0 0.0 0.0 0.00 0.00 0.00 81 1013.1
20260905000553 69 0 0.0 0.0 0.00 0.00 0.00 80 1013.1
20260904235555 70 0 0.0 0.0 0.00 0.00 0.00 79 1012.9
20260904235055 70 0 0.0 0.0 0.00 0.00 0.00 78 1012.9
20260904234604 70 0 0.0 0.0 0.00 0.00 0.00 77 1013.0
20260904234059 70 0 0.0 0.0 0.00 0.00 0.00 76 1013.0
20260904233554 70 0 0.0 1.0 0.00 0.00 0.00 76 1012.9
20260904233108 70 0 0.0 1.0 0.00 0.00 0.00 75 1012.9
20260904232557 70 0 0.0 1.0 0.00 0.00 0.00 75 1012.9
20260904232055 71 0 0.0 0.0 0.00 0.00 0.00 76 1012.8
20260904231603 71 0 0.0 0.0 0.00 0.00 0.00 76 1012.6
20260904231054 71 0 0.0 0.0 0.00 0.00 0.00 75 1012.7
20260904230554 72 0 0.0 0.0 0.00 0.00 0.00 72 1012.7
20260904230109 72 0 0.0 1.0 0.00 0.00 0.00 71 1012.7
20260904225553 72 0 0.0 1.0 0.00 0.00 0.00 70 1012.7
20260904225053 73 0 0.0 1.0 0.00 0.00 0.00 69 1012.7
20260904224604 73 0 0.0 1.0 0.00 0.00 0.00 68 1012.6
20260904224102 74 0 0.0 2.0 0.00 0.00 0.00 66 1012.6
20260904223553 75 340 0.0 2.0 0.00 0.00 0.00 64 1012.6
20260904223109 76 0 0.0 3.0 0.00 0.00 0.00 62 1012.5
20260904222556 77 0 0.0 3.0 0.00 0.00 0.00 61 1012.5
20260904222103 77 283 0.0 2.0 0.00 0.00 0.00 61 1012.5
20260904221605 77 0 0.0 2.0 0.00 0.00 0.00 61 1012.7
20260904221100 77 0 0.0 2.0 0.00 0.00 0.00 60 1012.6
20260904220554 77 0 0.0 3.0 0.00 0.00 0.00 59 1012.7
20260904220116 77 0 0.0 3.0 0.00 0.00 0.00 60 1012.7
20260904215600 77 0 0.0 1.0 0.00 0.00 0.00 61 1012.8
20260904215057 77 0 0.0 3.0 0.00 0.00 0.00 61 1012.7
20260904214602 76 0 0.0 3.0 0.00 0.00 0.00 62 1012.7
20260904214059 77 0 1.0 3.0 0.00 0.00 0.00 59 1012.8
20260904213557 77 330 1.0 3.0 0.00 0.00 0.00 58 1012.9
20260904213111 78 310 0.0 3.0 0.00 0.00 0.00 60 1012.8
20260904212602 77 264 0.0 3.0 0.00 0.00 0.00 60 1012.7
20260904212054 77 288 0.0 7.0 0.00 0.00 0.00 59 1012.8
20260904211613 77 0 2.0 7.0 0.00 0.00 0.00 59 1012.8
20260904211057 77 283 2.0 5.0 0.00 0.00 0.00 58 1012.8
20260904210557 77 290 1.0 6.0 0.00 0.00 0.00 59 1012.9
20260904210105 77 312 1.0 8.0 0.00 0.00 0.00 57 1013.0
20260904205558 77 0 1.0 8.0 0.00 0.00 0.00 60 1013.0
20260904205057 78 325 1.0 5.0 0.00 0.00 0.00 60 1013.0
20260904204605 78 285 0.0 4.0 0.00 0.00 0.00 61 1013.1
20260904204059 78 311 1.0 4.0 0.00 0.00 0.00 62 1013.1
20260904203557 77 0 1.0 7.0 0.00 0.00 0.00 62 1013.1
20260904203108 77 11 1.0 7.0 0.00 0.00 0.00 62 1013.0